Regional Weather Roundup
Issued by NWS Huntsville, AL

Home | Current Version | Previous Version | Text Only | Print | Product List | Glossary On
Versions: 1 2 3 4 5 6 7 8 9 10 11 12 13 14 15 16 17 18 19 20 21 22 23 24 25 26 27 28 29 30 31 32 33 34 35 36 37 38 39 40 41 42 43 44 45 46 47 48 49 50
000
ASUS44 KHUN 210410
RWRHUN

WEATHER ROUNDUP FOR THE TENNESSEE VALLEY
NATIONAL WEATHER SERVICE HUNTSVILLE AL
1100 PM CDT FRI APR 20 2018

ALZ001>004-210500-
NORTHWEST ALABAMA

CITY           SKY/WX    TMP DP  RH WIND       PRES   REMARKS
SHOALS AIRPORT FAIR      51  37  58 NE6       30.27S
$$

ALZ005>007-016-210500-
NORTH CENTRAL ALABAMA

CITY           SKY/WX    TMP DP  RH WIND       PRES   REMARKS
DECATUR AP     FAIR      52  37  56 NE7       30.26F
HUNTSVILLE AP  FAIR      50  46  86 SE5       30.26S
MERIDIANVILLE  CLEAR     47  41  78 CALM      30.26F
REDSTONE ARSN  FAIR      54  36  50 NE3       30.25S
VINEMONT AP    FAIR      44  39  83 NE5       30.27F
$$

ALZ008>010-210500-
NORTHEAST ALABAMA

CITY           SKY/WX    TMP DP  RH WIND       PRES   REMARKS
ALBERTVILLE    FAIR      50  43  76 E5        30.26S
FORT PAYNE     FAIR      41  34  75 NE3       30.27S
SCOTTSBORO AP  FAIR      46  39  76 CALM      30.28S
$$

TNZ076-096-097-210500-
SOUTHEASTERN MIDDLE TENNESSEE

CITY           SKY/WX    TMP DP  RH WIND       PRES   REMARKS
TULLAHOMA      CLEAR     54  28  37 NE6       30.28S
WINCHESTER     CLEAR     48  36  61 CALM      30.28S
$$

...SURROUNDING SITES...

CITY           SKY/WX    TMP DP  RH WIND       PRES   REMARKS
ATLANTA        FAIR      56  35  45 SE3       30.29S
ANNISTON       FAIR      50  40  68 NE3       30.26F
BIRMINGHAM     FAIR      58  33  39 NE7       30.27S
CHATTANOOGA    FAIR      49  37  63 CALM      30.28F
CORINTH        FAIR      50  37  62 CALM      30.26S
DALTON         FAIR      45  37  76 CALM      30.29F
GADSDEN        FAIR      44  41  89 N3        30.27S
GOLDEN TRNGL   FAIR      56  38  50 E5        30.24R
HALEYVILLE     FAIR      44  42  93 CALM      30.28S
JACKSON TN     FAIR      54  35  48 E6        30.29R
MEMPHIS        FAIR      58  34  40 NE6       30.24S
NASHVILLE      FAIR      51  32  48 NE7       30.31S
OXFORD MS      FAIR      55  34  44 E5        30.25R
ROME           FAIR      46  41  82 NE3       30.27F
SAVANNAH       CLEAR     48  39  71 CALM      30.27S
SELMER         CLEAR     54  30  40 E5        30.27R
TUPELO         FAIR      59  33  37 E3        30.24S
TUSCALOOSA     FAIR      52  44  74 E3        30.24R
$$

...GULF COAST WEATHER...

CITY           SKY/WX    TMP DP  RH WIND       PRES   REMARKS
GULFPORT       FAIR      55  50  83 CALM      30.18S
PASCAGOULA     FAIR      51  48  89 CALM      30.18S
MOBILE         FAIR      51  48  89 E6        30.19S
GULF SHORES    FAIR      50  49  95 CALM      30.18S
PENSACOLA      FAIR      54  49  83 CALM      30.17
DESTIN         FAIR      68  49  50 E8        30.18S
PANAMA CITY    FAIR      64  52  64 E6        30.18S
APPALACHICOLA  FAIR      64  60  87 NE3       30.18S
$$




USA.gov is the U.S. government's official web portal to all federal, state and local government web resources and services.